Yatton Keynell, United Kingdom

8:54 AM BST on May 22, 2019 (GMT +0100)
Yatton Keynell

Weather History for 03740 - August, 2007

Change the Weather History Date:

Thursday, August 9, 2007

  Actual Average Record
Temperature  
Mean Temperature 58 °F -  
Max Temperature 69 °F 67 °F - ()
Min Temperature 47 °F 52 °F - ()
Degree Days  
Heating Degree Days 7    
Growing Degree Days 8 (Base 50)    
Moisture  
Dew Point 47 °F    
Average Humidity 65    
Maximum Humidity 91    
Minimum Humidity 30    
Precipitation  
Precipitation 0.00 in 0.08 in - ()
Sea Level Pressure  
Sea Level Pressure 30.16 in    
Wind  
Wind Speed 6 mph ()    
Max Wind Speed 10 mph    
Max Gust Speed -    
Visibility 13.5 miles    
Events      
T = Trace of Precipitation, MM = Missing Value Source: Averaged Metar Reports

Daily Weather History Graph

Daily Weather History Graph

Search for Another Location

Airport or City:

Astronomy

Aug. 09, 2007 Rise Set
Actual Time 5:43 AM BST 8:42 PM BST
Civil Twilight 5:04 AM BST 9:21 PM BST
Nautical Twilight 4:13 AM BST 10:11 PM BST
Astronomical Twilight 3:08 AM BST 11:15 PM BST
Moon 12:54 AM BST (8/9) 7:13 PM BST (8/9)
Length of Visible Light 16h 17m
Length of Day
14h 59m
Waning Crescent, 14% of the Moon is Illuminated
Aug 9
Waning Crescent
Aug 13
New
Aug 21
First Quarter
Aug 28
Full
Sep 4
Last Quarter

Hourly Weather History & Observations

Time (BST) Temp. Dew Point Humidity Pressure Visibility Wind Dir Wind Speed Gust Speed Precip Events Conditions
12:50 AM 54 °F 44 °F 60% 30.19 in 19 mi NNW 6.9 mph - -   Scattered Clouds
12:50 AM 55.4 °F 44.6 °F 67% 30.18 in - NNW 6.9 mph - N/A   Clear
1:50 AM 53.6 °F 44.6 °F 72% 30.18 in - NNW 6.9 mph - N/A   Clear
2:50 AM 51.8 °F 44.6 °F 76% 30.15 in - North 5.8 mph - N/A   Clear
3:50 AM 52 °F 46 °F 73% 30.18 in 19 mi North 3.5 mph - -   Clear
3:50 AM 51.8 °F 46.4 °F 82% 30.15 in - North 3.5 mph - N/A   Clear
4:50 AM 50.0 °F 46.4 °F 87% 30.15 in - North 2.3 mph - N/A   Clear
5:50 AM 48.2 °F 44.6 °F 87% 30.15 in - WNW 5.8 mph - N/A   Clear
6:50 AM 49 °F 47 °F 91% 30.19 in 19 mi WNW 5.8 mph - -   Scattered Clouds
6:50 AM 50.0 °F 46.4 °F 87% 30.18 in - WNW 5.8 mph - N/A   Clear
7:50 AM 53.6 °F 48.2 °F 82% 30.18 in - NNW 5.8 mph - N/A   Clear
8:50 AM 55.4 °F 50.0 °F 82% 30.18 in - NW 5.8 mph - N/A   Clear
9:50 AM 59 °F 51 °F 68% 30.20 in 19 mi North 4.6 mph - -   Clear
9:50 AM 59.0 °F 51.8 °F 77% 30.18 in - North 4.6 mph - N/A   Clear
10:50 AM 62.6 °F 51.8 °F 68% 30.18 in 6.2 mi North 5.8 mph - N/A   Scattered Clouds
11:50 AM 66.2 °F 48.2 °F 52% 30.18 in 6.2 mi NNW 6.9 mph - N/A   Mostly Cloudy
12:50 PM 66 °F 46 °F 37% 30.17 in 31 mi WNW 9.2 mph - -   Scattered Clouds
12:50 PM 66.2 °F 46.4 °F 49% 30.18 in 6.2 mi WNW 9.2 mph - N/A   Scattered Clouds
1:50 PM 68.0 °F 44.6 °F 43% 30.15 in - NW 5.8 mph - N/A   Clear
2:50 PM 68.0 °F 42.8 °F 40% 30.15 in - WNW 8.1 mph - N/A   Clear
3:50 PM 68 °F 44 °F 30% 30.15 in 31 mi NW 9.2 mph - -   Scattered Clouds
3:50 PM 68.0 °F 44.6 °F 43% 30.15 in - NW 9.2 mph - N/A   Clear
4:50 PM 69.8 °F 46.4 °F 43% 30.15 in - NW 10.4 mph - N/A   Clear
5:50 PM 68.0 °F 44.6 °F 43% 30.12 in - North 6.9 mph - N/A   Clear
6:50 PM 68.0 °F 44.6 °F 43% 30.12 in - North 6.9 mph - N/A   Clear
7:50 PM 66.2 °F 48.2 °F 52% 30.12 in - WNW 8.1 mph - N/A   Clear
8:50 PM 59.0 °F 48.2 °F 67% 30.12 in - WNW 5.8 mph - N/A   Clear
9:50 PM 59 °F 51 °F 69% 30.15 in 22 mi West 8.1 mph - -   Scattered Clouds
9:50 PM 59.0 °F 51.8 °F 77% 30.15 in - West 8.1 mph - N/A   Clear
10:50 PM 57.2 °F 51.8 °F 82% 30.12 in - West 8.1 mph - N/A   Clear
11:50 PM 57.2 °F 50.0 °F 77% 30.15 in - WSW 8.1 mph - N/A   Clear